Zurück zum Katalog

COSMOS 2168

AktivNavigationPO
NORAD 21782·PAYLOAD·🇷🇺 Russia

Gestartet Nov 12, 1991 von Plesetsk Cosmodrome

Loading…

Nächste Überflüge (nächste 24 Stunden)

TLE

AktuellSource: Space-Track

Epoche: Sep 14, 2026, 11:58 UTC

1 21782U 91077D   26257.49928168  .00000035  00000-0  13070-3 0  9995
2 21782  82.6001 155.7182 0013236 176.5172 358.0742 12.65533349609096

Verfolge COSMOS 2168 in Echtzeit mit AllMySat

Download on the App Store